Tracking 27188 objects as of 1-Apr-2023
HD Live streaming from Space Station
objects crossing your sky now

ONEWEB-0165

Track ONEWEB-0165 now!
10-day predictions
ONEWEB-0165 is classified as:


NORAD ID: 48233
Int'l Code: 2021-031Z
Perigee: 1,211.2 km
Apogee: 1,214.7 km
Inclination: 87.9 °
Period: 109.5 minutes
Semi major axis: 7583 km
RCS: Unknown
Launch date: April 25, 2021
Source: United Kingdom (UK)
Launch site: VOSTOCHNY COSMODROME (VOSTO)
Your satellite tracking list
Your tracking list is empty




NASA's NSSDC Master Catalog

Two Line Element Set (TLE):
1 48233U 21031Z   23091.22640145 -.00000208  00000-0 -59541-3 0  9995
2 48233  87.9109 163.0981 0002331  99.9141 260.2252 13.14501366 94266
Source of the keplerian elements: AFSPC